Weather History for Ely, NV

Change the Weather History Date:

Wednesday, February 29, 2012

  Actual Average Record
Temperature  
Mean Temperature 37 °F 33 °F  
Max Temperature 46 °F 46 °F 59 °F (1992)
Min Temperature 27 °F 19 °F -1 °F (1996)
Degree Days  
Heating Degree Days 28 32  
Month to date heating degree days 1012 1039  
Since 1 July heating degree days 4885 5369  
Cooling Degree Days 0 0  
Month to date cooling degree days 0 0  
Year to date cooling degree days 0 0  
Moisture  
Dew Point 24 °F    
Average Humidity 67    
Maximum Humidity 100    
Minimum Humidity 33    
Precipitation  
Precipitation 0.27 in 0.03 in 0.27 in (2012)
Month to date precipitation 1.07 0.75  
Year to date precipitation 1.74 1.45  
Snow  
Snow 7.10 in 0.20 in 0.50 in (1896)
Month to date snowfall 18.7 7.6  
Since 1 July snowfall 39.5 34.9  
Snow Depth 0.00 in    
Sea Level Pressure  
Sea Level Pressure 29.86 in    
Wind  
Wind Speed 15 mph (WSW)    
Max Wind Speed 31 mph    
Max Gust Speed 43 mph    
Visibility 5 miles    
Events Fog , Snow    
T = Trace of Precipitation, MM = Missing Value Source: NWS Daily Summary

Daily Weather History Graph

Daily Weather History Graph

Search for Another Location

Airport:

Trip Planner

Search our weather history database for the weather conditions in past years. The results will help you decide how hot, cold, wet, or windy it might be!

Date:

Astronomy

Feb. 29, 2012 Rise Set
Actual Time 6:12 AM PST 5:31 PM PST
Civil Twilight 5:45 AM PST 5:58 PM PST
Nautical Twilight 5:14 AM PST 6:29 PM PST
Astronomical Twilight 4:43 AM PST 7:00 PM PST
Moon 10:09 AM PST (2/29) 12:19 AM PST (2/29)
Length of Visible Light 12h 12m
Length of Day
11h 18m
Waxing Crescent, 48% of the Moon is Illuminated
Feb 29
Waxing Crescent
Feb 29
First Quarter
Mar 8
Full
Mar 14
Last Quarter
Mar 22
New

Hourly Weather History & Observations

Time (PST) Temp. Windchill Dew Point Humidity Pressure Visibility Wind Dir Wind Speed Gust Speed Precip Events Conditions
12:53 AM 30.9 °F 20.7 °F 17.1 °F 57% 29.97 in 10.0 mi South 13.8 mph 23.0 mph N/A   Scattered Clouds
1:53 AM 30.9 °F 21.2 °F 18.0 °F 59% 29.94 in 10.0 mi South 12.7 mph - N/A   Overcast
2:53 AM 30.9 °F 18.7 °F 17.1 °F 57% 29.92 in 10.0 mi SSE 19.6 mph 25.3 mph N/A   Overcast
3:53 AM 30.9 °F 18.4 °F 17.1 °F 57% 29.91 in 10.0 mi SSE 20.7 mph 28.8 mph N/A   Scattered Clouds
4:53 AM 30.0 °F 18.3 °F 17.1 °F 59% 29.92 in 10.0 mi SSE 17.3 mph - N/A   Partly Cloudy
5:53 AM 30.9 °F 18.4 °F 17.1 °F 57% 29.93 in 10.0 mi SSE 20.7 mph 29.9 mph N/A   Partly Cloudy
6:53 AM 30.9 °F 19.4 °F 17.1 °F 57% 29.92 in 10.0 mi SSE 17.3 mph 25.3 mph N/A   Clear
7:53 AM 33.1 °F 22.6 °F 17.1 °F 52% 29.95 in 10.0 mi SSE 16.1 mph 24.2 mph N/A   Clear
8:53 AM 37.0 °F 25.6 °F 17.1 °F 44% 29.91 in 10.0 mi SSE 24.2 mph 29.9 mph N/A   Mostly Cloudy
9:53 AM 39.0 °F 29.3 °F 18.0 °F 43% 29.88 in 10.0 mi SE 19.6 mph 32.2 mph N/A   Mostly Cloudy
10:53 AM 37.0 °F 27.7 °F 19.0 °F 48% 29.87 in 10.0 mi South 16.1 mph 34.5 mph N/A   Overcast
11:53 AM 45.0 °F 38.2 °F 18.0 °F 34% 29.78 in 10.0 mi SSW 15.0 mph 29.9 mph N/A   Clear
12:53 PM 45.0 °F 36.2 °F 17.1 °F 33% 29.75 in 10.0 mi South 24.2 mph 42.6 mph N/A   Clear
1:53 PM 44.1 °F 35.0 °F 19.0 °F 37% 29.74 in 10.0 mi SSW 24.2 mph 34.5 mph N/A   Scattered Clouds
2:53 PM 41.0 °F 31.1 °F 19.0 °F 41% 29.75 in 10.0 mi South 23.0 mph 29.9 mph N/A   Overcast
3:53 PM 37.9 °F 28.5 °F 21.9 °F 53% 29.77 in 10.0 mi South 17.3 mph 28.8 mph N/A   Overcast
4:53 PM 37.0 °F 27.7 °F 25.0 °F 62% 29.76 in 10.0 mi SSE 16.1 mph 20.7 mph 0.00 in   Overcast
5:53 PM 36.0 °F 26.7 °F 26.1 °F 67% 29.80 in 7.0 mi WSW 15.0 mph - 0.00 in Snow Light Snow
6:00 PM 33.8 °F 26.4 °F 28.4 °F 81% 29.83 in 3.0 mi West 9.2 mph 21.9 mph 0.00 in Snow Light Snow
6:05 PM 33.8 °F 24.8 °F 28.4 °F 81% 29.83 in 1.8 mi West 12.7 mph 21.9 mph 0.00 in Snow Light Snow
6:15 PM 33.8 °F 23.5 °F 28.4 °F 81% 29.83 in 1.0 mi West 16.1 mph 25.3 mph 0.00 in Snow Light Snow
6:19 PM 33.8 °F 22.5 °F 28.4 °F 81% 29.84 in 0.8 mi West 19.6 mph 25.3 mph 0.00 in Snow Light Snow
6:31 PM 30.2 °F 19.8 °F 28.4 °F 93% 29.84 in 0.5 mi West 13.8 mph 19.6 mph 0.03 in Fog , Snow Snow
6:38 PM 30.2 °F 20.8 °F 28.4 °F 93% 29.85 in 0.2 mi WNW 11.5 mph 19.6 mph 0.05 in Fog , Snow Heavy Snow
6:47 PM 30.2 °F 21.3 °F 28.4 °F 93% 29.86 in 0.5 mi WNW 10.4 mph - 0.07 in Fog , Snow Snow
6:53 PM 30.0 °F 23.2 °F 28.9 °F 96% 29.86 in 0.5 mi West 6.9 mph 19.6 mph 0.09 in Fog , Snow Snow
7:00 PM 30.2 °F 20.2 °F 28.4 °F 93% 29.85 in 0.2 mi West 12.7 mph - 0.02 in Fog , Snow Heavy Snow
7:12 PM 30.2 °F 20.8 °F 28.4 °F 93% 29.86 in 0.5 mi NW 11.5 mph - 0.05 in Fog , Snow Snow
7:19 PM 30.2 °F 19.8 °F 28.4 °F 93% 29.86 in 0.8 mi NNW 13.8 mph - 0.05 in Snow Light Snow
7:21 PM 30.2 °F 21.3 °F 26.6 °F 86% 29.86 in 1.0 mi NNW 10.4 mph - 0.05 in Snow Light Snow
7:24 PM 30.2 °F 23.4 °F 28.4 °F 93% 29.87 in 2.0 mi NW 6.9 mph - 0.05 in Snow Light Snow
7:28 PM 30.2 °F 22.6 °F 28.4 °F 93% 29.87 in 4.0 mi North 8.1 mph - 0.05 in Snow Light Snow
7:53 PM 28.9 °F 25.2 °F 28.0 °F 96% 29.88 in 2.5 mi NNW 3.5 mph - 0.06 in Snow Light Snow
7:56 PM 28.4 °F 23.3 °F 28.4 °F 100% 29.88 in 1.2 mi NW 4.6 mph - 0.00 in Snow Light Snow
8:03 PM 28.4 °F - 26.6 °F 93% 29.88 in 0.5 mi Calm Calm - 0.01 in Fog , Snow Snow
8:14 PM 28.4 °F - 26.6 °F 93% 29.87 in 0.2 mi Calm Calm - 0.04 in Fog , Snow Heavy Snow
8:26 PM 28.4 °F 23.3 °F 26.6 °F 93% 29.88 in 0.8 mi NW 4.6 mph - 0.06 in Snow Light Snow
8:35 PM 28.4 °F 23.3 °F 26.6 °F 93% 29.88 in 1.0 mi NW 4.6 mph - 0.07 in Snow Light Snow
8:46 PM 28.4 °F 22.2 °F 26.6 °F 93% 29.88 in 0.8 mi NNW 5.8 mph - 0.08 in Snow Light Snow
8:53 PM 28.0 °F 21.7 °F 27.0 °F 96% 29.86 in 1.0 mi NNW 5.8 mph - 0.09 in Snow Light Snow
9:04 PM 28.4 °F 24.6 °F 26.6 °F 93% 29.88 in 1.8 mi NW 3.5 mph - 0.00 in Snow Light Snow
9:16 PM 28.4 °F 24.6 °F 26.6 °F 93% 29.89 in 1.2 mi WNW 3.5 mph - 0.00 in Snow Light Snow
9:19 PM 28.4 °F - 26.6 °F 93% 29.89 in 1.5 mi Calm Calm - 0.01 in Snow Light Snow
9:42 PM 28.4 °F - 26.6 °F 93% 29.88 in 1.0 mi Calm Calm - 0.01 in Snow Light Snow
9:53 PM 28.0 °F - 26.1 °F 92% 29.86 in 1.0 mi Calm Calm - 0.02 in Snow Light Snow
10:22 PM 26.6 °F - 24.8 °F 93% 29.88 in 2.0 mi Calm Calm - 0.01 in Snow Light Snow
10:53 PM 27.0 °F - 25.0 °F 92% 29.88 in 1.8 mi Calm Calm - 0.01 in Snow Light Snow
11:06 PM 26.6 °F - 26.6 °F 100% 29.89 in 2.5 mi Calm Calm - 0.00 in Snow Light Snow
11:11 PM 28.4 °F 22.2 °F 24.8 °F 86% 29.89 in 3.0 mi ESE 5.8 mph - 0.00 in Snow Light Snow
11:53 PM 27.0 °F 23.0 °F 23.0 °F 85% 29.85 in 10.0 mi West 3.5 mph - 0.00 in   Overcast